owner,sensor,date,latitude,longitude,vertical_datum,wind_speed,wind_to_direction,wind_speed_of_gust,qcFlag 
TCOON,ioos:station:TCOON:009:1,2016-06-02T18:54:00Z,27.8398,-97.0727,0.0,2.3,13.0,3.8,'1111122,1111122,1111122' 
TCOON,ioos:station:TCOON:009:1,2016-06-02T19:42:00Z,27.8398,-97.0727,0.0,3.3,342.0,5.1,'1111122,1111122,1111122' 
TCOON,ioos:station:TCOON:009:1,2016-06-02T20:24:00Z,27.8398,-97.0727,0.0,4.7,15.0,5.5,'1111122,1111122,1111122' 
TCOON,ioos:station:TCOON:009:1,2016-06-02T20:48:00Z,27.8398,-97.0727,0.0,5.4,68.0,6.0,'11111222,11111222,11111222' 
TCOON,ioos:station:TCOON:009:1,2016-06-02T20:54:00Z,27.8398,-97.0727,0.0,4.9,63.0,5.3,'11111222,11111222,11111222' 
TCOON,ioos:station:TCOON:009:1,2016-06-02T21:00:00Z,27.8398,-97.0727,0.0,3.9,91.0,5.2,'11111222,11111222,11111222' 
TCOON,ioos:station:TCOON:009:1,2016-06-02T21:06:00Z,27.8398,-97.0727,0.0,5.4,164.0,7.9,'11111222,11111222,11111222' 
TCOON,ioos:station:TCOON:009:1,2016-06-02T21:12:00Z,27.8398,-97.0727,0.0,5.0,144.0,8.8,'11111222,11111222,11111222' 
TCOON,ioos:station:TCOON:009:1,2016-06-02T21:18:00Z,27.8398,-97.0727,0.0,7.3,130.0,9.6,'11111222,11111222,11111222' 
TCOON,ioos:station:TCOON:009:1,2016-06-02T21:24:00Z,27.8398,-97.0727,0.0,7.9,122.0,10.2,'11111222,11111222,11111222' 
TCOON,ioos:station:TCOON:009:1,2016-06-02T21:30:00Z,27.8398,-97.0727,0.0,5.5,118.0,9.2,'11111222,11111222,11111222' 
TCOON,ioos:station:TCOON:009:1,2016-06-02T21:36:00Z,27.8398,-97.0727,0.0,99.0,-9999.0,99.0,'11144222,99999999,11144222' 
TCOON,ioos:station:TCOON:009:1,2016-06-02T21:42:00Z,27.8398,-97.0727,0.0,2.2,147.0,7.4,'1111122,1111122,1111122' 
TCOON,ioos:station:TCOON:009:1,2016-06-02T21:48:00Z,27.8398,-97.0727,0.0,99.0,-9999.0,99.0,'11144222,99999999,11144222' 
TCOON,ioos:station:TCOON:009:1,2016-06-02T21:54:00Z,27.8398,-97.0727,0.0,3.1,142.0,4.7,'11111222,11111222,11111222' 
TCOON,ioos:station:TCOON:009:1,2016-06-02T22:00:00Z,27.8398,-97.0727,0.0,5.5,109.0,7.8,'11111222,11111222,11111222' 
TCOON,ioos:station:TCOON:009:1,2016-06-02T22:06:00Z,27.8398,-97.0727,0.0,4.9,111.0,6.9,'11111222,11111222,11111222' 
TCOON,ioos:station:TCOON:009:1,2016-06-02T22:12:00Z,27.8398,-97.0727,0.0,3.7,126.0,6.0,'11111222,11111222,11111222' 
TCOON,ioos:station:TCOON:009:1,2016-06-02T22:18:00Z,27.8398,-97.0727,0.0,3.5,138.0,4.8,'11111222,11111222,11111222' 
TCOON,ioos:station:TCOON:009:1,2016-06-02T22:24:00Z,27.8398,-97.0727,0.0,99.0,-9999.0,99.0,'11144222,99999999,11144222' 
TCOON,ioos:station:TCOON:009:1,2016-06-02T22:30:00Z,27.8398,-97.0727,0.0,2.8,117.0,5.6,'1111122,1111122,1111122' 
TCOON,ioos:station:TCOON:009:1,2016-06-02T22:36:00Z,27.8398,-97.0727,0.0,99.0,-9999.0,99.0,'11144222,99999999,11144222' 
TCOON,ioos:station:TCOON:009:1,2016-06-02T22:42:00Z,27.8398,-97.0727,0.0,99.0,-9999.0,99.0,'11144222,99999999,11144222' 
TCOON,ioos:station:TCOON:009:1,2016-06-02T22:48:00Z,27.8398,-97.0727,0.0,99.0,-9999.0,99.0,'11144222,99999999,11144222' 
TCOON,ioos:station:TCOON:009:1,2016-06-02T22:54:00Z,27.8398,-97.0727,0.0,99.0,-9999.0,99.0,'11144222,99999999,11144222' 
TCOON,ioos:station:TCOON:009:1,2016-06-02T23:00:00Z,27.8398,-97.0727,0.0,99.0,-9999.0,99.0,'11144222,99999999,11144222' 
TCOON,ioos:station:TCOON:009:1,2016-06-02T23:06:00Z,27.8398,-97.0727,0.0,99.0,-9999.0,99.0,'11144222,99999999,11144222' 
TCOON,ioos:station:TCOON:009:1,2016-06-02T23:12:00Z,27.8398,-97.0727,0.0,99.0,-9999.0,99.0,'11144222,99999999,11144222' 
TCOON,ioos:station:TCOON:009:1,2016-06-02T23:18:00Z,27.8398,-97.0727,0.0,99.0,-9999.0,99.0,'11144222,99999999,11144222' 
TCOON,ioos:station:TCOON:009:1,2016-06-02T23:24:00Z,27.8398,-97.0727,0.0,99.0,-9999.0,99.0,'11144222,99999999,11144222' 
TCOON,ioos:station:TCOON:009:1,2016-06-02T23:30:00Z,27.8398,-97.0727,0.0,99.0,-9999.0,99.0,'11144222,99999999,11144222' 
TCOON,ioos:station:TCOON:009:1,2016-06-02T23:36:00Z,27.8398,-97.0727,0.0,2.8,126.0,4.4,'1111122,1111122,1111122' 
TCOON,ioos:station:TCOON:009:1,2016-06-02T23:42:00Z,27.8398,-97.0727,0.0,2.9,146.0,4.6,'11111222,11111222,11111222' 
TCOON,ioos:station:TCOON:009:1,2016-06-02T23:48:00Z,27.8398,-97.0727,0.0,3.2,138.0,4.7,'11111222,11111222,11111222' 
TCOON,ioos:station:TCOON:009:1,2016-06-02T23:54:00Z,27.8398,-97.0727,0.0,99.0,-9999.0,99.0,'11144222,99999999,11144222' 
TCOON,ioos:station:TCOON:009:1,2016-06-03T00:00:00Z,27.8398,-97.0727,0.0,99.0,-9999.0,99.0,'11144222,99999999,11144222' 
TCOON,ioos:station:TCOON:009:1,2016-06-03T00:06:00Z,27.8398,-97.0727,0.0,99.0,-9999.0,99.0,'11144222,99999999,11144222' 
TCOON,ioos:station:TCOON:009:1,2016-06-03T00:12:00Z,27.8398,-97.0727,0.0,99.0,-9999.0,99.0,'11144222,99999999,11144222' 
TCOON,ioos:station:TCOON:009:1,2016-06-03T00:18:00Z,27.8398,-97.0727,0.0,99.0,-9999.0,99.0,'11144222,99999999,11144222' 
TCOON,ioos:station:TCOON:009:1,2016-06-03T00:24:00Z,27.8398,-97.0727,0.0,99.0,-9999.0,99.0,'11144222,99999999,11144222' 
TCOON,ioos:station:TCOON:009:1,2016-06-03T00:30:00Z,27.8398,-97.0727,0.0,1.9,153.0,3.1,'1111122,1111122,1111122' 
TCOON,ioos:station:TCOON:009:1,2016-06-03T00:36:00Z,27.8398,-97.0727,0.0,99.0,-9999.0,99.0,'11144222,99999999,11144222' 
TCOON,ioos:station:TCOON:009:1,2016-06-03T00:42:00Z,27.8398,-97.0727,0.0,99.0,-9999.0,99.0,'11144222,99999999,11144222' 
TCOON,ioos:station:TCOON:009:1,2016-06-03T00:48:00Z,27.8398,-97.0727,0.0,99.0,-9999.0,99.0,'11144222,99999999,11144222' 
TCOON,ioos:station:TCOON:009:1,2016-06-03T00:54:00Z,27.8398,-97.0727,0.0,99.0,-9999.0,99.0,'11144222,99999999,11144222' 
TCOON,ioos:station:TCOON:009:1,2016-06-03T01:00:00Z,27.8398,-97.0727,0.0,99.0,-9999.0,99.0,'11144222,99999999,11144222' 
TCOON,ioos:station:TCOON:009:1,2016-06-03T01:06:00Z,27.8398,-97.0727,0.0,2.7,143.0,5.3,'11111222,11111222,11111222' 
TCOON,ioos:station:TCOON:009:1,2016-06-03T01:12:00Z,27.8398,-97.0727,0.0,3.2,129.0,4.8,'11111222,11111222,11111222' 
TCOON,ioos:station:TCOON:009:1,2016-06-03T01:18:00Z,27.8398,-97.0727,0.0,2.8,122.0,5.2,'11111222,11111222,11111222' 
TCOON,ioos:station:TCOON:009:1,2016-06-03T01:24:00Z,27.8398,-97.0727,0.0,2.8,122.0,5.2,'1111122,1111122,1111122' 
TCOON,ioos:station:TCOON:009:1,2016-06-03T01:30:00Z,27.8398,-97.0727,0.0,99.0,-9999.0,99.0,'11144222,99999999,11144222' 
TCOON,ioos:station:TCOON:009:1,2016-06-03T01:36:00Z,27.8398,-97.0727,0.0,99.0,-9999.0,99.0,'11144222,99999999,11144222' 
TCOON,ioos:station:TCOON:009:1,2016-06-03T01:42:00Z,27.8398,-97.0727,0.0,99.0,-9999.0,99.0,'11144222,99999999,11144222' 
TCOON,ioos:station:TCOON:009:1,2016-06-03T01:48:00Z,27.8398,-97.0727,0.0,99.0,-9999.0,99.0,'11144222,99999999,11144222' 
TCOON,ioos:station:TCOON:009:1,2016-06-03T01:54:00Z,27.8398,-97.0727,0.0,99.0,-9999.0,99.0,'11144222,99999999,11144222' 
TCOON,ioos:station:TCOON:009:1,2016-06-03T02:00:00Z,27.8398,-97.0727,0.0,99.0,-9999.0,99.0,'11144222,99999999,11144222' 
TCOON,ioos:station:TCOON:009:1,2016-06-03T02:06:00Z,27.8398,-97.0727,0.0,2.5,144.0,4.4,'11111222,11111222,11111222' 
TCOON,ioos:station:TCOON:009:1,2016-06-03T02:12:00Z,27.8398,-97.0727,0.0,1.6,140.0,2.9,'11111222,11111222,11111222' 
TCOON,ioos:station:TCOON:009:1,2016-06-03T02:18:00Z,27.8398,-97.0727,0.0,1.4,155.0,2.9,'11111222,11111222,11111222' 
TCOON,ioos:station:TCOON:009:1,2016-06-03T02:24:00Z,27.8398,-97.0727,0.0,1.3,164.0,2.4,'11111222,11111222,11111222' 
TCOON,ioos:station:TCOON:009:1,2016-06-03T02:30:00Z,27.8398,-97.0727,0.0,1.7,151.0,3.2,'11111222,11111222,11111222' 
TCOON,ioos:station:TCOON:009:1,2016-06-03T02:36:00Z,27.8398,-97.0727,0.0,1.1,158.0,2.8,'11111222,11111222,11111222' 
TCOON,ioos:station:TCOON:009:1,2016-06-03T02:42:00Z,27.8398,-97.0727,0.0,1.1,158.0,2.8,'1111122,1111122,1111122' 
TCOON,ioos:station:TCOON:009:1,2016-06-03T02:48:00Z,27.8398,-97.0727,0.0,1.4,171.0,2.4,'11111222,11111222,11111222' 
TCOON,ioos:station:TCOON:009:1,2016-06-03T02:54:00Z,27.8398,-97.0727,0.0,99.0,-9999.0,99.0,'11144222,99999999,11144222' 
TCOON,ioos:station:TCOON:009:1,2016-06-03T03:00:00Z,27.8398,-97.0727,0.0,99.0,-9999.0,99.0,'11144222,99999999,11144222' 
TCOON,ioos:station:TCOON:009:1,2016-06-03T03:06:00Z,27.8398,-97.0727,0.0,0.9,158.0,1.7,'11111222,11111222,11111222' 
TCOON,ioos:station:TCOON:009:1,2016-06-03T03:12:00Z,27.8398,-97.0727,0.0,1.0,176.0,1.9,'11111222,11111222,11111222' 
TCOON,ioos:station:TCOON:009:1,2016-06-03T03:18:00Z,27.8398,-97.0727,0.0,1.9,178.0,3.0,'11111222,11111222,11111222' 
TCOON,ioos:station:TCOON:009:1,2016-06-03T03:24:00Z,27.8398,-97.0727,0.0,1.9,178.0,3.0,'1111122,1111122,1111122' 
TCOON,ioos:station:TCOON:009:1,2016-06-03T03:30:00Z,27.8398,-97.0727,0.0,1.8,192.0,2.7,'11111222,11111222,11111222' 
TCOON,ioos:station:TCOON:009:1,2016-06-03T03:36:00Z,27.8398,-97.0727,0.0,1.7,192.0,2.4,'11111222,11111222,11111222' 
TCOON,ioos:station:TCOON:009:1,2016-06-03T03:42:00Z,27.8398,-97.0727,0.0,1.5,196.0,2.4,'11111222,11111222,11111222' 
TCOON,ioos:station:TCOON:009:1,2016-06-03T03:48:00Z,27.8398,-97.0727,0.0,1.5,189.0,2.5,'11111222,11111222,11111222' 
TCOON,ioos:station:TCOON:009:1,2016-06-03T03:54:00Z,27.8398,-97.0727,0.0,2.1,171.0,2.9,'11111222,11111222,11111222' 
TCOON,ioos:station:TCOON:009:1,2016-06-03T04:00:00Z,27.8398,-97.0727,0.0,2.1,169.0,3.1,'11111222,11111222,11111222' 
TCOON,ioos:station:TCOON:009:1,2016-06-03T04:06:00Z,27.8398,-97.0727,0.0,2.0,164.0,3.5,'11111222,11111222,11111222' 
TCOON,ioos:station:TCOON:009:1,2016-06-03T04:12:00Z,27.8398,-97.0727,0.0,2.3,163.0,3.5,'11111222,11111222,11111222' 
TCOON,ioos:station:TCOON:009:1,2016-06-03T04:18:00Z,27.8398,-97.0727,0.0,2.0,165.0,3.5,'11111222,11111222,11111222' 
TCOON,ioos:station:TCOON:009:1,2016-06-03T04:24:00Z,27.8398,-97.0727,0.0,3.3,170.0,4.9,'11111222,11111222,11111222' 
TCOON,ioos:station:TCOON:009:1,2016-06-03T04:30:00Z,27.8398,-97.0727,0.0,2.0,168.0,3.2,'11111222,11111222,11111222' 
TCOON,ioos:station:TCOON:009:1,2016-06-03T04:36:00Z,27.8398,-97.0727,0.0,1.5,148.0,3.1,'11111222,11111222,11111222' 
TCOON,ioos:station:TCOON:009:1,2016-06-03T04:42:00Z,27.8398,-97.0727,0.0,1.5,148.0,3.1,'1111122,1111122,1111122' 
TCOON,ioos:station:TCOON:009:1,2016-06-03T04:48:00Z,27.8398,-97.0727,0.0,1.9,158.0,3.5,'11111222,11111222,11111222' 
TCOON,ioos:station:TCOON:009:1,2016-06-03T04:54:00Z,27.8398,-97.0727,0.0,1.5,156.0,2.7,'11111222,11111222,11111222' 
TCOON,ioos:station:TCOON:009:1,2016-06-03T05:00:00Z,27.8398,-97.0727,0.0,1.0,179.0,1.8,'11111222,11111222,11111222' 
TCOON,ioos:station:TCOON:009:1,2016-06-03T05:06:00Z,27.8398,-97.0727,0.0,0.8,149.0,1.5,'11111222,11111222,11111222' 
TCOON,ioos:station:TCOON:009:1,2016-06-03T05:12:00Z,27.8398,-97.0727,0.0,1.0,135.0,1.5,'11111222,11111222,11111222' 
TCOON,ioos:station:TCOON:009:1,2016-06-03T05:18:00Z,27.8398,-97.0727,0.0,0.2,122.0,1.3,'11111222,11111222,11111222' 
TCOON,ioos:station:TCOON:009:1,2016-06-03T05:24:00Z,27.8398,-97.0727,0.0,0.0,125.0,0.3,'11111222,11111222,11111222' 
TCOON,ioos:station:TCOON:009:1,2016-06-03T05:30:00Z,27.8398,-97.0727,0.0,0.0,125.0,0.3,'1114422,1111122,1111122' 
TCOON,ioos:station:TCOON:009:1,2016-06-03T05:36:00Z,27.8398,-97.0727,0.0,1.2,357.0,1.4,'11111222,11111222,11111222' 
TCOON,ioos:station:TCOON:009:1,2016-06-03T05:42:00Z,27.8398,-97.0727,0.0,0.9,3.0,1.5,'11111222,11111222,11111222' 
TCOON,ioos:station:TCOON:009:1,2016-06-03T05:48:00Z,27.8398,-97.0727,0.0,0.9,348.0,1.1,'11111222,11111222,11111222' 
TCOON,ioos:station:TCOON:009:1,2016-06-03T05:54:00Z,27.8398,-97.0727,0.0,1.6,8.0,1.8,'11111222,11111222,11111222' 
TCOON,ioos:station:TCOON:009:1,2016-06-03T06:00:00Z,27.8398,-97.0727,0.0,2.6,349.0,2.8,'11111222,11111222,11111222' 
TCOON,ioos:station:TCOON:009:1,2016-06-03T06:06:00Z,27.8398,-97.0727,0.0,3.6,1.0,6.4,'11111222,11111222,11111222' 
TCOON,ioos:station:TCOON:009:1,2016-06-03T06:12:00Z,27.8398,-97.0727,0.0,6.4,5.0,8.1,'11111222,11111222,11111222' 
TCOON,ioos:station:TCOON:009:1,2016-06-03T06:18:00Z,27.8398,-97.0727,0.0,5.8,3.0,8.8,'11111222,11111222,11111222' 
TCOON,ioos:station:TCOON:009:1,2016-06-03T06:24:00Z,27.8398,-97.0727,0.0,7.4,5.0,8.9,'11111222,11111222,11111222' 
TCOON,ioos:station:TCOON:009:1,2016-06-03T06:30:00Z,27.8398,-97.0727,0.0,6.2,357.0,7.7,'11111222,11111222,11111222' 
TCOON,ioos:station:TCOON:009:1,2016-06-03T06:36:00Z,27.8398,-97.0727,0.0,8.5,351.0,10.0,'11111222,11111222,11111222' 
TCOON,ioos:station:TCOON:009:1,2016-06-03T06:42:00Z,27.8398,-97.0727,0.0,8.5,351.0,10.0,'1111122,1111122,1111122' 
TCOON,ioos:station:TCOON:009:1,2016-06-03T06:48:00Z,27.8398,-97.0727,0.0,6.3,317.0,8.7,'11111222,11111222,11111222' 
TCOON,ioos:station:TCOON:009:1,2016-06-03T06:54:00Z,27.8398,-97.0727,0.0,7.9,72.0,10.3,'11111222,11111222,11111222' 
TCOON,ioos:station:TCOON:009:1,2016-06-03T07:00:00Z,27.8398,-97.0727,0.0,5.4,62.0,11.0,'11111222,11111222,11111222' 
TCOON,ioos:station:TCOON:009:1,2016-06-03T07:06:00Z,27.8398,-97.0727,0.0,3.6,83.0,5.3,'11111222,11111222,11111222' 
TCOON,ioos:station:TCOON:009:1,2016-06-03T07:12:00Z,27.8398,-97.0727,0.0,1.9,86.0,3.9,'11111222,11111222,11111222' 
TCOON,ioos:station:TCOON:009:1,2016-06-03T07:18:00Z,27.8398,-97.0727,0.0,2.0,38.0,3.0,'11111222,11111222,11111222' 
TCOON,ioos:station:TCOON:009:1,2016-06-03T07:24:00Z,27.8398,-97.0727,0.0,1.6,124.0,3.6,'11111222,11111222,11111222' 
TCOON,ioos:station:TCOON:009:1,2016-06-03T07:30:00Z,27.8398,-97.0727,0.0,2.9,22.0,3.7,'11111222,11111222,11111222' 
TCOON,ioos:station:TCOON:009:1,2016-06-03T07:36:00Z,27.8398,-97.0727,0.0,5.9,47.0,6.5,'11111222,11111222,11111222' 
TCOON,ioos:station:TCOON:009:1,2016-06-03T07:42:00Z,27.8398,-97.0727,0.0,5.1,33.0,6.0,'11111222,11111222,11111222' 
TCOON,ioos:station:TCOON:009:1,2016-06-03T07:48:00Z,27.8398,-97.0727,0.0,5.1,33.0,6.0,'1111122,1111122,1111122' 
TCOON,ioos:station:TCOON:009:1,2016-06-03T07:54:00Z,27.8398,-97.0727,0.0,1.8,25.0,3.4,'11111222,11111222,11111222' 
TCOON,ioos:station:TCOON:009:1,2016-06-03T08:00:00Z,27.8398,-97.0727,0.0,1.2,91.0,1.9,'11111222,11111222,11111222' 
TCOON,ioos:station:TCOON:009:1,2016-06-03T08:06:00Z,27.8398,-97.0727,0.0,4.2,44.0,4.8,'11111222,11111222,11111222' 
TCOON,ioos:station:TCOON:009:1,2016-06-03T08:12:00Z,27.8398,-97.0727,0.0,4.9,33.0,5.9,'11111222,11111222,11111222' 
TCOON,ioos:station:TCOON:009:1,2016-06-03T08:18:00Z,27.8398,-97.0727,0.0,5.3,44.0,6.1,'11111222,11111222,11111222' 
TCOON,ioos:station:TCOON:009:1,2016-06-03T08:24:00Z,27.8398,-97.0727,0.0,5.3,44.0,6.1,'1111122,1111122,1111122' 
TCOON,ioos:station:TCOON:009:1,2016-06-03T08:30:00Z,27.8398,-97.0727,0.0,5.1,73.0,6.0,'11111222,11111222,11111222' 
TCOON,ioos:station:TCOON:009:1,2016-06-03T08:36:00Z,27.8398,-97.0727,0.0,4.1,84.0,5.9,'11111222,11111222,11111222' 
TCOON,ioos:station:TCOON:009:1,2016-06-03T08:42:00Z,27.8398,-97.0727,0.0,3.9,96.0,5.6,'11111222,11111222,11111222' 
TCOON,ioos:station:TCOON:009:1,2016-06-03T08:48:00Z,27.8398,-97.0727,0.0,4.2,96.0,5.8,'11111222,11111222,11111222' 
TCOON,ioos:station:TCOON:009:1,2016-06-03T08:54:00Z,27.8398,-97.0727,0.0,2.6,105.0,4.5,'11111222,11111222,11111222' 
TCOON,ioos:station:TCOON:009:1,2016-06-03T09:00:00Z,27.8398,-97.0727,0.0,1.7,114.0,3.5,'11111222,11111222,11111222' 
TCOON,ioos:station:TCOON:009:1,2016-06-03T09:06:00Z,27.8398,-97.0727,0.0,1.5,110.0,2.2,'11111222,11111222,11111222' 
TCOON,ioos:station:TCOON:009:1,2016-06-03T09:12:00Z,27.8398,-97.0727,0.0,2.4,96.0,3.2,'11111222,11111222,11111222' 
TCOON,ioos:station:TCOON:009:1,2016-06-03T09:18:00Z,27.8398,-97.0727,0.0,2.8,98.0,3.5,'11111222,11111222,11111222' 
TCOON,ioos:station:TCOON:009:1,2016-06-03T09:24:00Z,27.8398,-97.0727,0.0,2.2,97.0,3.0,'11111222,11111222,11111222' 
TCOON,ioos:station:TCOON:009:1,2016-06-03T09:30:00Z,27.8398,-97.0727,0.0,2.2,97.0,3.0,'1111122,1111122,1111122' 
TCOON,ioos:station:TCOON:009:1,2016-06-03T09:36:00Z,27.8398,-97.0727,0.0,2.1,102.0,3.2,'11111222,11111222,11111222' 
TCOON,ioos:station:TCOON:009:1,2016-06-03T09:42:00Z,27.8398,-97.0727,0.0,2.3,128.0,3.7,'11111222,11111222,11111222' 
TCOON,ioos:station:TCOON:009:1,2016-06-03T09:48:00Z,27.8398,-97.0727,0.0,2.6,95.0,3.3,'11111222,11111222,11111222' 
TCOON,ioos:station:TCOON:009:1,2016-06-03T09:54:00Z,27.8398,-97.0727,0.0,2.7,91.0,3.6,'11111222,11111222,11111222' 
TCOON,ioos:station:TCOON:009:1,2016-06-03T10:00:00Z,27.8398,-97.0727,0.0,2.6,93.0,3.4,'11111222,11111222,11111222' 
TCOON,ioos:station:TCOON:009:1,2016-06-03T10:06:00Z,27.8398,-97.0727,0.0,1.7,98.0,3.2,'11111222,11111222,11111222' 
TCOON,ioos:station:TCOON:009:1,2016-06-03T10:12:00Z,27.8398,-97.0727,0.0,1.5,83.0,1.8,'11111222,11111222,11111222' 
TCOON,ioos:station:TCOON:009:1,2016-06-03T10:18:00Z,27.8398,-97.0727,0.0,0.3,85.0,1.9,'11111222,11111222,11111222' 
TCOON,ioos:station:TCOON:009:1,2016-06-03T10:24:00Z,27.8398,-97.0727,0.0,0.2,211.0,0.6,'11111222,11111222,11111222' 
TCOON,ioos:station:TCOON:009:1,2016-06-03T10:30:00Z,27.8398,-97.0727,0.0,0.0,264.0,0.8,'11111222,11111222,11111222' 
TCOON,ioos:station:TCOON:009:1,2016-06-03T10:36:00Z,27.8398,-97.0727,0.0,0.4,168.0,0.6,'11111222,11111222,11111222' 
TCOON,ioos:station:TCOON:009:1,2016-06-03T10:42:00Z,27.8398,-97.0727,0.0,0.9,87.0,1.2,'11111222,11111222,11111222' 
TCOON,ioos:station:TCOON:009:1,2016-06-03T10:48:00Z,27.8398,-97.0727,0.0,0.9,87.0,1.2,'1111122,1111122,1111122' 
TCOON,ioos:station:TCOON:009:1,2016-06-03T10:54:00Z,27.8398,-97.0727,0.0,2.6,75.0,3.6,'11111222,11111222,11111222' 
TCOON,ioos:station:TCOON:009:1,2016-06-03T11:00:00Z,27.8398,-97.0727,0.0,3.2,63.0,3.9,'11111222,11111222,11111222' 
TCOON,ioos:station:TCOON:009:1,2016-06-03T11:06:00Z,27.8398,-97.0727,0.0,2.6,78.0,3.5,'11111222,11111222,11111222' 
TCOON,ioos:station:TCOON:009:1,2016-06-03T11:12:00Z,27.8398,-97.0727,0.0,0.8,106.0,2.0,'11111222,11111222,11111222' 
TCOON,ioos:station:TCOON:009:1,2016-06-03T11:18:00Z,27.8398,-97.0727,0.0,2.3,126.0,2.6,'11111222,11111222,11111222' 
TCOON,ioos:station:TCOON:009:1,2016-06-03T11:24:00Z,27.8398,-97.0727,0.0,1.8,111.0,2.4,'11111222,11111222,11111222' 
TCOON,ioos:station:TCOON:009:1,2016-06-03T11:30:00Z,27.8398,-97.0727,0.0,2.3,119.0,2.6,'11111222,11111222,11111222' 
TCOON,ioos:station:TCOON:009:1,2016-06-03T11:36:00Z,27.8398,-97.0727,0.0,1.5,109.0,2.6,'11111222,11111222,11111222' 
TCOON,ioos:station:TCOON:009:1,2016-06-03T11:42:00Z,27.8398,-97.0727,0.0,1.5,109.0,2.6,'1111122,1111122,1111122' 
TCOON,ioos:station:TCOON:009:1,2016-06-03T11:48:00Z,27.8398,-97.0727,0.0,0.6,98.0,0.9,'11111222,11111222,11111222' 
TCOON,ioos:station:TCOON:009:1,2016-06-03T11:54:00Z,27.8398,-97.0727,0.0,1.4,105.0,1.8,'11111222,11111222,11111222' 
TCOON,ioos:station:TCOON:009:1,2016-06-03T12:00:00Z,27.8398,-97.0727,0.0,1.0,118.0,1.4,'11111222,11111222,11111222' 
TCOON,ioos:station:TCOON:009:1,2016-06-03T12:06:00Z,27.8398,-97.0727,0.0,0.8,121.0,1.6,'11111222,11111222,11111222' 
TCOON,ioos:station:TCOON:009:1,2016-06-03T12:12:00Z,27.8398,-97.0727,0.0,0.0,125.0,0.6,'11111222,11111222,11111222' 
TCOON,ioos:station:TCOON:009:1,2016-06-03T12:18:00Z,27.8398,-97.0727,0.0,0.0,123.0,0.0,'11111222,11111222,11111222' 
TCOON,ioos:station:TCOON:009:1,2016-06-03T12:24:00Z,27.8398,-97.0727,0.0,0.1,41.0,0.4,'11111222,11111222,11111222' 
TCOON,ioos:station:TCOON:009:1,2016-06-03T12:30:00Z,27.8398,-97.0727,0.0,0.1,41.0,0.4,'1111122,1111122,1111122' 
TCOON,ioos:station:TCOON:009:1,2016-06-03T12:36:00Z,27.8398,-97.0727,0.0,1.0,341.0,1.2,'11111222,11111222,11111222' 
TCOON,ioos:station:TCOON:009:1,2016-06-03T12:42:00Z,27.8398,-97.0727,0.0,1.3,349.0,1.6,'11111222,11111222,11111222' 
TCOON,ioos:station:TCOON:009:1,2016-06-03T12:48:00Z,27.8398,-97.0727,0.0,1.6,354.0,1.8,'11111222,11111222,11111222' 
TCOON,ioos:station:TCOON:009:1,2016-06-03T12:54:00Z,27.8398,-97.0727,0.0,1.5,347.0,1.8,'11111222,11111222,11111222' 
TCOON,ioos:station:TCOON:009:1,2016-06-03T13:00:00Z,27.8398,-97.0727,0.0,1.1,338.0,1.8,'11111222,11111222,11111222' 
TCOON,ioos:station:TCOON:009:1,2016-06-03T13:06:00Z,27.8398,-97.0727,0.0,1.0,71.0,1.3,'11111222,11111222,11111222' 
TCOON,ioos:station:TCOON:009:1,2016-06-03T13:12:00Z,27.8398,-97.0727,0.0,0.2,92.0,1.6,'11111222,11111222,11111222' 
TCOON,ioos:station:TCOON:009:1,2016-06-03T13:18:00Z,27.8398,-97.0727,0.0,0.0,10.0,0.4,'11111222,11111222,11111222' 
TCOON,ioos:station:TCOON:009:1,2016-06-03T13:24:00Z,27.8398,-97.0727,0.0,0.0,10.0,0.0,'11111222,11111222,11111222' 
TCOON,ioos:station:TCOON:009:1,2016-06-03T13:30:00Z,27.8398,-97.0727,0.0,0.0,10.0,0.0,'1114422,1111122,1114422' 
TCOON,ioos:station:TCOON:009:1,2016-06-03T13:36:00Z,27.8398,-97.0727,0.0,0.6,293.0,1.0,'11111222,11111222,11111222' 
TCOON,ioos:station:TCOON:009:1,2016-06-03T13:42:00Z,27.8398,-97.0727,0.0,1.2,310.0,1.5,'11111222,11111222,11111222' 
TCOON,ioos:station:TCOON:009:1,2016-06-03T13:48:00Z,27.8398,-97.0727,0.0,1.6,286.0,1.8,'11111222,11111222,11111222' 
TCOON,ioos:station:TCOON:009:1,2016-06-03T13:54:00Z,27.8398,-97.0727,0.0,1.2,283.0,1.5,'11111222,11111222,11111222' 
TCOON,ioos:station:TCOON:009:1,2016-06-03T14:00:00Z,27.8398,-97.0727,0.0,1.2,301.0,1.6,'11111222,11111222,11111222' 
TCOON,ioos:station:TCOON:009:1,2016-06-03T14:06:00Z,27.8398,-97.0727,0.0,0.2,289.0,1.3,'11111222,11111222,11111222' 
TCOON,ioos:station:TCOON:009:1,2016-06-03T14:12:00Z,27.8398,-97.0727,0.0,1.1,302.0,1.6,'11111222,11111222,11111222' 
TCOON,ioos:station:TCOON:009:1,2016-06-03T14:18:00Z,27.8398,-97.0727,0.0,1.1,304.0,1.7,'11111222,11111222,11111222' 
TCOON,ioos:station:TCOON:009:1,2016-06-03T14:24:00Z,27.8398,-97.0727,0.0,0.8,318.0,1.6,'11111222,11111222,11111222' 
TCOON,ioos:station:TCOON:009:1,2016-06-03T14:30:00Z,27.8398,-97.0727,0.0,0.8,295.0,1.5,'11111222,11111222,11111222' 
TCOON,ioos:station:TCOON:009:1,2016-06-03T14:36:00Z,27.8398,-97.0727,0.0,0.8,287.0,1.5,'11111222,11111222,11111222' 
TCOON,ioos:station:TCOON:009:1,2016-06-03T14:42:00Z,27.8398,-97.0727,0.0,0.8,287.0,1.5,'1111122,1111122,1111122' 
TCOON,ioos:station:TCOON:009:1,2016-06-03T14:48:00Z,27.8398,-97.0727,0.0,2.1,305.0,2.5,'11111222,11111222,11111222' 
TCOON,ioos:station:TCOON:009:1,2016-06-03T14:54:00Z,27.8398,-97.0727,0.0,2.3,320.0,3.1,'11111222,11111222,11111222' 
TCOON,ioos:station:TCOON:009:1,2016-06-03T15:00:00Z,27.8398,-97.0727,0.0,2.5,309.0,3.2,'11111222,11111222,11111222' 
TCOON,ioos:station:TCOON:009:1,2016-06-03T15:06:00Z,27.8398,-97.0727,0.0,1.9,329.0,3.0,'11111222,11111222,11111222' 
TCOON,ioos:station:TCOON:009:1,2016-06-03T15:12:00Z,27.8398,-97.0727,0.0,0.9,334.0,2.0,'11111222,11111222,11111222' 
TCOON,ioos:station:TCOON:009:1,2016-06-03T15:18:00Z,27.8398,-97.0727,0.0,2.4,11.0,3.4,'11111222,11111222,11111222' 
TCOON,ioos:station:TCOON:009:1,2016-06-03T15:24:00Z,27.8398,-97.0727,0.0,2.3,357.0,3.8,'11111222,11111222,11111222' 
TCOON,ioos:station:TCOON:009:1,2016-06-03T15:30:00Z,27.8398,-97.0727,0.0,2.3,9.0,3.3,'11111222,11111222,11111222' 
TCOON,ioos:station:TCOON:009:1,2016-06-03T15:36:00Z,27.8398,-97.0727,0.0,2.6,16.0,3.8,'11111222,11111222,11111222' 
TCOON,ioos:station:TCOON:009:1,2016-06-03T15:42:00Z,27.8398,-97.0727,0.0,2.6,16.0,3.8,'1111122,1111122,1111122' 
TCOON,ioos:station:TCOON:009:1,2016-06-03T15:48:00Z,27.8398,-97.0727,0.0,3.9,35.0,4.6,'11111222,11111222,11111222' 
TCOON,ioos:station:TCOON:009:1,2016-06-03T15:54:00Z,27.8398,-97.0727,0.0,4.3,41.0,5.5,'11111222,11111222,11111222' 
TCOON,ioos:station:TCOON:009:1,2016-06-03T16:00:00Z,27.8398,-97.0727,0.0,4.3,48.0,5.1,'11111222,11111222,11111222' 
TCOON,ioos:station:TCOON:009:1,2016-06-03T16:06:00Z,27.8398,-97.0727,0.0,4.9,32.0,5.6,'11111222,11111222,11111222' 
TCOON,ioos:station:TCOON:009:1,2016-06-03T16:12:00Z,27.8398,-97.0727,0.0,4.0,43.0,5.5,'11111222,11111222,11111222' 
TCOON,ioos:station:TCOON:009:1,2016-06-03T16:18:00Z,27.8398,-97.0727,0.0,5.1,24.0,6.2,'11111222,11111222,11111222' 
TCOON,ioos:station:TCOON:009:1,2016-06-03T16:24:00Z,27.8398,-97.0727,0.0,5.3,17.0,6.4,'11111222,11111222,11111222' 
TCOON,ioos:station:TCOON:009:1,2016-06-03T16:30:00Z,27.8398,-97.0727,0.0,5.5,31.0,7.0,'11111222,11111222,11111222' 
TCOON,ioos:station:TCOON:009:1,2016-06-03T16:36:00Z,27.8398,-97.0727,0.0,5.1,23.0,7.0,'11111222,11111222,11111222' 
TCOON,ioos:station:TCOON:009:1,2016-06-03T16:42:00Z,27.8398,-97.0727,0.0,5.1,23.0,7.0,'1111122,1111122,1111122' 
TCOON,ioos:station:TCOON:009:1,2016-06-03T16:48:00Z,27.8398,-97.0727,0.0,5.0,26.0,6.2,'11111222,11111222,11111222' 